sat.trackr.live / text

‹ back to catalog

STARLINK-4077

NORAD 53154 · 2022-083Y

PAYLOAD ACTIVE UNKNOWN

§ Identity

Operator
Country
US
Launch date
2022-07-17
Launch site
AFETR
Launch vehicle
Mass (kg)
RCS (m²)

Purposes: comms

External: N2YO · Heavens-Above · Gunter

§ Orbital elements

Epoch: 2026-09-19T19:55:13.226880Z

Period
93.79 min
Inclination
53.1620°
Eccentricity
0.0001142
Mean motion
15.35400314 rev/d
Perigee alt
459.0 km
Apogee alt
460.5 km
Semi-major
6,837.9 km
B*
4.6734e-5
RAAN
5.0160°
Arg perigee
92.4985°
Mean anomaly
267.6149°
Rev number
23,076

§ Raw data

STARLINK-40771 53154U 22083Y   26262.83001420  .00001250  00000+0  46734-4 0  99942 53154  53.1620   5.0160 0001142  92.4985 267.6149 15.35400314230763

JSON: /api/v1/satellites/53154 · /tle

For live sub-satellite position, see the globe view (requires WebGL).

§ Visibility from observer

Set your observer location to see the next 7 days of passes ≥ 10°. The values pass through the URL so the page stays shareable.

No JS? Fill the form by hand. The geolocation button needs JavaScript.